sat.trackr.live / text

‹ back to catalog

STARLINK-37078

NORAD 68174 · 2026-050H

PAYLOAD ACTIVE UNKNOWN

§ Identity

Operator
Country
US
Launch date
2026-03-14
Launch site
AFETR
Launch vehicle
Mass (kg)
RCS (m²)

Purposes: comms

External: N2YO · Heavens-Above · Gunter

§ Orbital elements

Epoch: 2026-09-19T21:42:08.496000Z

Period
93.85 min
Inclination
53.1585°
Eccentricity
0.0001418
Mean motion
15.34381926 rev/d
Perigee alt
461.8 km
Apogee alt
463.7 km
Semi-major
6,840.9 km
B*
7.2850e-4
RAAN
80.7116°
Arg perigee
71.8447°
Mean anomaly
288.2709°
Rev number
3,047

§ Raw data

STARLINK-370781 68174U 26050H   26262.90426500  .00024303  00000+0  72850-3 0  99992 68174  53.1585  80.7116 0001418  71.8447 288.2709 15.34381926 30475

JSON: /api/v1/satellites/68174 · /tle

For live sub-satellite position, see the globe view (requires WebGL).

§ Visibility from observer

Set your observer location to see the next 7 days of passes ≥ 10°. The values pass through the URL so the page stays shareable.

No JS? Fill the form by hand. The geolocation button needs JavaScript.